This demonstration page uses our WeatherBlox Daily Observations layout. Learn more.

Hourly Observations for August 2, 2019

Temp ( °F °C ) Dew Point ( °F °C ) Humidity (%) Winds ( mph kmh ) Pressure ( in mb ) Visibility ( mi km ) Precip ( " mm )
12:15 am 00:15 Clear 75 24 70 21 83 83 Calm 30.12 1020 10 16.09344 0 0
12:35 am 00:35 Clear 73 23 70 21 89 89 Calm 30.12 1020 10 16.09344 0 0
12:55 am 00:55 Clear 77 25 70 21 79 79 Calm 30.09 1019 10 16.09344 0 0
1:15 am 01:15 Clear 77 25 70 21 79 79 ENE 3 6 30.12 1020 10 16.09344 0 0
1:35 am 01:35 Clear 73 23 70 21 89 89 E 3 6 30.12 1020 10 16.09344 0 0
1:55 am 01:55 Clear 73 23 70 21 89 89 SW 3 6 30.12 1020 10 16.09344 0 0
2:15 am 02:15 Clear 72 22 70 21 94 94 Calm 30.12 1020 10 16.09344 0 0
2:35 am 02:35 Clear 72 22 70 21 94 94 Calm 30.12 1020 10 16.09344 0 0
2:55 am 02:55 Clear 72 22 70 21 94 94 N 3 6 30.12 1020 10 16.09344 0 0
3:15 am 03:15 Clear 73 23 70 21 89 89 ENE 5 7 30.09 1019 10 16.09344 0 0
3:35 am 03:35 Clear 72 22 70 21 94 94 W 3 6 30.09 1019 10 16.09344 0 0
3:55 am 03:55 Partly Cloudy 70 21 70 21 100 100 W 3 6 30.12 1020 10 16.09344 0 0
4:15 am 04:15 Partly Cloudy with Nearby Thunderstorms 70 21 70 21 100 100 NE 5 7 30.09 1019 10 16.09344 0 0
4:35 am 04:35 Clear 72 22 70 21 94 94 Calm 30.09 1019 10 16.09344 0 0
4:55 am 04:55 Partly Cloudy 72 22 70 21 94 94 Calm 30.12 1020 10 16.09344 0 0
5:15 am 05:15 Partly Cloudy 70 21 70 21 100 100 N 3 6 30.12 1020 10 16.09344 0 0
5:35 am 05:35 Clear 70 21 70 21 100 100 NE 5 7 30.12 1020 10 16.09344 0 0
5:55 am 05:55 Mostly Cloudy 70 21 70 21 100 100 ENE 3 6 30.12 1020 10 16.09344 0 0
6:15 am 06:15 Partly Cloudy 70 21 70 21 100 100 Calm 30.12 1020 10 16.09344 0 0
6:35 am 06:35 Partly Cloudy 70 21 70 21 100 100 Calm 30.12 1020 10 16.09344 0 0
6:55 am 06:55 Partly Cloudy 70 21 70 21 100 100 Calm 30.12 1020 7 11.265408 0 0
7:15 am 07:15 Mostly Cloudy 70 21 70 21 100 100 Calm 30.15 1021 7 11.265408 0 0
7:35 am 07:35 Cloudy 70 21 70 21 100 100 Calm 30.12 1020 10 16.09344 0 0
7:55 am 07:55 Mostly Cloudy 70 21 70 21 100 100 Calm 30.12 1020 10 16.09344 0 0
8:15 am 08:15 Partly Cloudy 72 22 70 21 94 94 NW 5 7 30.12 1020 10 16.09344 0 0
8:35 am 08:35 Sunny 72 22 70 21 94 94 NW 3 6 30.12 1020 10 16.09344 0 0
8:55 am 08:55 Sunny 73 23 70 21 89 89 Calm 30.15 1021 10 16.09344 0 0
9:15 am 09:15 Sunny 73 23 70 21 89 89 Calm 30.15 1021 10 16.09344 0 0
9:35 am 09:35 Partly Cloudy 73 23 70 21 89 89 S 6 9 30.15 1021 10 16.09344 0 0
9:55 am 09:55 Mostly Cloudy 77 25 68 20 74 74 SSE 6 9 30.15 1021 10 16.09344 0 0
10:15 am 10:15 Partly Cloudy 79 26 64 18 61 61 SSE 9 15 30.15 1021 10 16.09344 0 0
10:35 am 10:35 Sunny 77 25 64 18 65 65 S 8 13 30.15 1021 10 16.09344 0 0
10:55 am 10:55 Sunny 79 26 64 18 61 61 S 7 11 30.15 1021 10 16.09344 0 0
11:15 am 11:15 Sunny 79 26 64 18 61 61 SW 6 9 30.15 1021 10 16.09344 0 0
11:35 am 11:35 Sunny 79 26 64 18 61 61 S 5 7 30.15 1021 10 16.09344 0 0
11:55 am 11:55 Sunny 81 27 66 19 62 62 S 6 9 30.15 1021 10 16.09344 0 0
12:15 pm 12:15 Sunny 81 27 66 19 62 62 S 6 9 30.15 1021 10 16.09344 0 0
12:35 pm 12:35 Sunny 82 28 66 19 58 58 SSW 7 11 30.15 1021 10 16.09344 0 0
12:55 pm 12:55 Sunny 84 29 68 20 58 58 SSW 7 11 30.12 1020 10 16.09344 0 0
1:15 pm 13:15 Sunny 86 30 66 19 52 52 SSE 3 6 30.12 1020 10 16.09344 0 0
1:35 pm 13:35 Sunny 86 30 66 19 52 52 Calm 30.12 1020 10 16.09344 0 0
1:55 pm 13:55 Partly Cloudy 86 30 66 19 52 52 S 3 6 30.12 1020 10 16.09344 0 0
2:15 pm 14:15 Partly Cloudy 88 31 63 17 43 43 S 6 9 30.12 1020 10 16.09344 0 0
2:35 pm 14:35 Sunny 88 31 63 17 43 43 S 7 11 30.09 1019 10 16.09344 0 0
2:55 pm 14:55 Sunny 90 32 61 16 38 38 S 9 15 30.06 1018 10 16.09344 0 0
3:15 pm 15:15 Partly Cloudy 88 31 63 17 43 43 ESE 7 11 30.09 1019 10 16.09344 0 0
3:35 pm 15:35 Partly Cloudy 88 31 61 16 40 40 SE 8 13 30.09 1019 10 16.09344 0 0
3:55 pm 15:55 Mostly Cloudy 90 32 63 17 41 41 SSE 9 15 30.06 1018 10 16.09344 0 0
4:15 pm 16:15 Partly Cloudy 88 31 63 17 43 43 SE 12 19 30.03 1017 10 16.09344 0 0
4:35 pm 16:35 Sunny 88 31 63 17 43 43 S 12 19 30.03 1017 10 16.09344 0 0
4:55 pm 16:55 Sunny 88 31 63 17 43 43 S 9 15 30.03 1017 10 16.09344 0 0
5:15 pm 17:15 Partly Cloudy 88 31 64 18 46 46 S 7 11 30.09 1019 10 16.09344 0 0
5:35 pm 17:35 Partly Cloudy 88 31 66 19 49 49 S 9 15 30.09 1019 10 16.09344 0 0
5:55 pm 17:55 Partly Cloudy 86 30 68 20 55 55 S 6 9 30.06 1018 10 16.09344 0 0
6:15 pm 18:15 Mostly Cloudy 88 31 68 20 52 52 S 10 17 30.03 1017 10 16.09344 0 0
6:35 pm 18:35 Mostly Cloudy 86 30 66 19 52 52 S 12 19 30.06 1018 10 16.09344 0 0
6:55 pm 18:55 Partly Cloudy 86 30 68 20 55 55 S 10 17 30.06 1018 10 16.09344 0 0
7:15 pm 19:15 Partly Cloudy 86 30 68 20 55 55 SSE 12 19 30.06 1018 10 16.09344 0 0
7:35 pm 19:35 Mostly Cloudy 84 29 68 20 58 58 S 12 19 30.09 1019 10 16.09344 0 0
7:55 pm 19:55 Sunny 82 28 68 20 62 62 SSE 7 11 30.09 1019 10 16.09344 0 0
8:15 pm 20:15 Sunny 82 28 70 21 66 66 SSE 7 11 30.09 1019 10 16.09344 0 0
8:35 pm 20:35 Clear 81 27 70 21 70 70 SSE 7 11 30.09 1019 10 16.09344 0 0
8:55 pm 20:55 Clear 81 27 70 21 70 70 SSE 6 9 30.09 1019 10 16.09344 0 0
9:15 pm 21:15 Clear 81 27 70 21 70 70 S 6 9 30.09 1019 10 16.09344 0 0
9:35 pm 21:35 Clear 81 27 70 21 70 70 S 5 7 30.09 1019 10 16.09344 0 0
9:55 pm 21:55 Clear 81 27 70 21 70 70 S 5 7 30.09 1019 10 16.09344 0 0
10:15 pm 22:15 Clear 77 25 70 21 79 79 S 3 6 30.09 1019 10 16.09344 0 0
10:35 pm 22:35 Clear 77 25 70 21 79 79 S 5 7 30.09 1019 10 16.09344 0 0
10:55 pm 22:55 Clear 79 26 72 22 79 79 SSE 3 6 30.09 1019 10 16.09344 0 0
11:10 pm 23:10 Clear 77 25 72 22 83 83 SSE 6 9 30.09 1019 10 16.09344 0 0
11:35 pm 23:35 Clear 77 25 72 22 83 83 SSE 5 7 30.09 1019 10 16.09344 0 0
11:55 pm 23:55 Clear 77 25 72 22 83 83 S 6 9 30.09 1019 10 16.09344 0 0

Powered by AerisWeather